Precipitable_Water
0.69 0.71 0.70 0.67 0.66 0.65 0.64 0.64 0.65 0.67 0.70 0.71 0.73 0.76 0.78 0.80 0.81 0.81 0.79 0.75 0.66 0.60 0.60 0.60 0.61 0.64 0.64 0.66 0.67 0.68 0.67 0.67 0.58 0.62 0.68 0.71 0.72 0.71 0.75 0.79 0.82 0.83 0.83
0.67 0.68 0.69 0.67 0.65 0.64 0.64 0.65 0.66 0.67 0.69 0.69 0.69 0.68 0.67 0.66 0.65 0.63 0.62 0.59 0.56 0.54 0.57 0.59 0.59 0.62 0.63 0.66 0.65 0.65 0.65 0.66 0.63 0.60 0.65 0.67 0.67 0.69 0.71 0.72 0.73 0.73 0.74
0.65 0.65 0.64 0.64 0.64 0.63 0.63 0.63 0.64 0.65 0.66 0.67 0.66 0.64 0.63 0.64 0.64 0.60 0.58 0.55 0.54 0.58 0.59 0.60 0.62 0.64 0.63 0.64 0.64 0.63 0.62 0.63 0.64 0.62 0.61 0.66 0.65 0.66 0.64 0.66 0.68 0.68 0.67
0.64 0.63 0.62 0.62 0.62 0.62 0.63 0.63 0.62 0.62 0.61 0.61 0.61 0.60 0.59 0.58 0.58 0.57 0.54 0.55 0.58 0.61 0.63 0.63 0.63 0.62 0.61 0.60 0.59 0.60 0.60 0.60 0.60 0.59 0.59 0.61 0.63 0.65 0.63 0.58 0.55 0.53 0.44
0.63 0.62 0.62 0.63 0.63 0.63 0.61 0.60 0.61 0.60 0.59 0.58 0.58 0.58 0.59 0.57 0.55 0.57 0.60 0.62 0.62 0.62 0.62 0.62 0.62 0.60 0.60 0.56 0.54 0.53 0.52 0.49 0.48 0.47 0.47 0.47 0.46 0.45 0.41 0.38 0.31 0.28 0.25
0.66 0.65 0.64 0.63 0.62 0.61 0.60 0.60 0.59 0.58 0.58 0.59 0.59 0.57 0.55 0.58 0.62 0.61 0.60 0.61 0.61 0.59 0.56 0.51 0.48 0.46 0.46 0.47 0.48 0.47 0.46 0.40 0.40 0.39 0.36 0.32 0.30 0.27 0.25 0.23 0.20 0.15 0.10
0.66 0.67 0.65 0.64 0.62 0.62 0.62 0.61 0.60 0.60 0.61 0.59 0.57 0.57 0.58 0.59 0.60 0.61 0.61 0.59 0.51 0.45 0.41 0.38 0.35 0.34 0.32 0.29 0.27 0.25 0.25 0.25 0.23 0.20 0.17 0.17 0.17 0.19 0.19 0.17 0.16 0.15 0.15
0.67 0.67 0.67 0.66 0.64 0.65 0.65 0.63 0.62 0.61 0.58 0.57 0.57 0.60 0.59 0.61 0.62 0.57 0.46 0.37 0.31 0.27 0.24 0.22 0.21 0.22 0.25 0.23 0.23 0.22 0.23 0.23 0.24 0.24 0.22 0.21 0.20 0.20 0.19 0.18 0.18 0.20 0.23
0.67 0.67 0.68 0.68 0.65 0.65 0.64 0.64 0.62 0.59 0.58 0.57 0.58 0.58 0.56 0.45 0.33 0.26 0.23 0.21 0.21 0.21 0.23 0.23 0.24 0.25 0.27 0.26 0.21 0.20 0.21 0.22 0.24 0.26 0.25 0.24 0.24 0.25 0.26 0.23 0.22 0.22 0.20
0.68 0.69 0.71 0.71 0.68 0.66 0.65 0.62 0.61 0.59 0.56 0.56 0.52 0.44 0.36 0.30 0.28 0.25 0.23 0.22 0.20 0.21 0.22 0.24 0.27 0.26 0.26 0.25 0.22 0.20 0.18 0.19 0.20 0.20 0.20 0.21 0.22 0.23 0.25 0.25 0.24 0.21 0.22
0.70 0.70 0.69 0.69 0.67 0.66 0.65 0.63 0.59 0.58 0.55 0.44 0.37 0.33 0.28 0.27 0.26 0.25 0.23 0.21 0.21 0.21 0.22 0.23 0.25 0.28 0.27 0.25 0.24 0.21 0.20 0.23 0.23 0.21 0.20 0.21 0.23 0.25 0.27 0.29 0.29 0.28 0.25
0.69 0.68 0.66 0.67 0.67 0.66 0.63 0.60 0.59 0.52 0.42 0.35 0.27 0.25 0.25 0.25 0.26 0.26 0.27 0.26 0.24 0.22 0.23 0.25 0.26 0.26 0.25 0.25 0.24 0.24 0.26 0.25 0.22 0.21 0.22 0.23 0.24 0.25 0.27 0.29 0.30 0.31 0.31
0.68 0.67 0.66 0.66 0.66 0.64 0.61 0.59 0.53 0.43 0.32 0.26 0.23 0.22 0.23 0.25 0.26 0.29 0.29 0.28 0.29 0.27 0.27 0.27 0.28 0.27 0.24 0.23 0.25 0.26 0.26 0.24 0.24 0.23 0.24 0.24 0.26 0.28 0.29 0.29 0.30 0.30 0.30
0.67 0.67 0.67 0.66 0.63 0.63 0.61 0.54 0.38 0.29 0.25 0.23 0.22 0.21 0.22 0.24 0.25 0.28 0.28 0.29 0.30 0.28 0.28 0.27 0.25 0.25 0.25 0.25 0.26 0.25 0.25 0.26 0.26 0.26 0.26 0.27 0.28 0.28 0.27 0.28 0.27 0.27 0.26
0.68 0.68 0.67 0.65 0.63 0.62 0.52 0.37 0.30 0.28 0.25 0.22 0.22 0.22 0.23 0.23 0.26 0.29 0.30 0.29 0.29 0.29 0.29 0.26 0.23 0.23 0.23 0.24 0.25 0.26 0.27 0.28 0.28 0.28 0.27 0.27 0.27 0.27 0.27 0.28 0.27 0.27 0.25
0.67 0.67 0.66 0.65 0.64 0.54 0.37 0.30 0.31 0.28 0.28 0.26 0.25 0.25 0.26 0.27 0.29 0.32 0.33 0.32 0.32 0.32 0.29 0.25 0.23 0.24 0.24 0.24 0.25 0.26 0.28 0.29 0.29 0.29 0.28 0.28 0.27 0.26 0.26 0.27 0.27 0.26 0.25
0.68 0.67 0.67 0.66 0.63 0.40 0.33 0.30 0.27 0.30 0.31 0.30 0.29 0.28 0.28 0.29 0.31 0.32 0.32 0.32 0.32 0.33 0.28 0.26 0.25 0.26 0.26 0.26 0.27 0.27 0.27 0.30 0.31 0.30 0.29 0.28 0.27 0.26 0.26 0.26 0.26 0.25 0.25
0.70 0.69 0.68 0.65 0.55 0.34 0.32 0.30 0.29 0.27 0.26 0.27 0.30 0.29 0.29 0.30 0.30 0.33 0.33 0.32 0.30 0.29 0.28 0.28 0.27 0.28 0.28 0.28 0.28 0.28 0.29 0.30 0.30 0.29 0.28 0.28 0.27 0.26 0.26 0.25 0.25 0.25 0.25
0.66 0.65 0.63 0.57 0.44 0.32 0.32 0.32 0.31 0.30 0.29 0.28 0.28 0.28 0.30 0.31 0.32 0.32 0.33 0.31 0.30 0.30 0.30 0.29 0.29 0.29 0.30 0.30 0.30 0.29 0.28 0.28 0.29 0.28 0.28 0.27 0.26 0.26 0.26 0.26 0.26 0.27 0.27
0.67 0.63 0.60 0.56 0.43 0.32 0.32 0.32 0.31 0.30 0.30 0.29 0.28 0.27 0.27 0.30 0.29 0.30 0.31 0.31 0.31 0.31 0.31 0.30 0.31 0.31 0.32 0.32 0.30 0.29 0.27 0.26 0.26 0.25 0.25 0.25 0.26 0.26 0.26 0.26 0.26 0.26 0.27
0.71 0.67 0.63 0.58 0.48 0.36 0.34 0.33 0.32 0.32 0.31 0.30 0.29 0.28 0.28 0.28 0.28 0.28 0.28 0.29 0.30 0.30 0.30 0.31 0.32 0.31 0.34 0.33 0.31 0.29 0.27 0.25 0.24 0.24 0.23 0.23 0.24 0.24 0.26 0.26 0.27 0.27 0.28
0.72 0.70 0.67 0.63 0.54 0.43 0.37 0.35 0.34 0.34 0.34 0.33 0.30 0.29 0.30 0.31 0.29 0.28 0.28 0.29 0.30 0.30 0.30 0.30 0.31 0.32 0.35 0.34 0.32 0.29 0.27 0.25 0.25 0.23 0.22 0.22 0.23 0.24 0.24 0.25 0.27 0.28 0.28
0.72 0.71 0.68 0.67 0.64 0.57 0.46 0.42 0.39 0.38 0.38 0.36 0.35 0.32 0.31 0.30 0.30 0.31 0.30 0.30 0.31 0.30 0.30 0.30 0.32 0.33 0.36 0.35 0.33 0.31 0.28 0.27 0.26 0.25 0.23 0.22 0.22 0.23 0.24 0.24 0.26 0.27 0.28
0.71 0.70 0.69 0.69 0.68 0.64 0.59 0.52 0.47 0.47 0.46 0.44 0.41 0.38 0.35 0.33 0.33 0.38 0.34 0.31 0.34 0.31 0.31 0.31 0.32 0.34 0.36 0.35 0.34 0.32 0.31 0.30 0.30 0.28 0.26 0.25 0.24 0.24 0.25 0.26 0.27 0.27 0.27
0.71 0.70 0.69 0.69 0.68 0.67 0.65 0.61 0.55 0.50 0.50 0.48 0.44 0.41 0.39 0.38 0.40 0.40 0.36 0.37 0.38 0.32 0.31 0.32 0.33 0.35 0.36 0.35 0.34 0.34 0.33 0.33 0.32 0.31 0.31 0.29 0.27 0.27 0.27 0.28 0.28 0.28 0.27
0.68 0.68 0.67 0.67 0.67 0.67 0.67 0.65 0.62 0.56 0.56 0.55 0.50 0.46 0.43 0.42 0.44 0.47 0.43 0.45 0.37 0.32 0.31 0.34 0.36 0.37 0.38 0.35 0.35 0.35 0.35 0.35 0.34 0.34 0.33 0.32 0.30 0.30 0.30 0.29 0.29 0.28 0.28
Wind_Speed
25 25 26 25 25 26 26 26 26 26 26 26 26 26 26 26 26 26 26 25 25 25 25 25 25 26 27 28 27 27 28 27 27 27 26 25 24 23 22 22 22 23 25
25 25 25 26 26 26 26 26 26 27 27 27 26 25 25 24 24 24 24 23 23 23 23 23 24 25 25 26 26 26 25 24 24 24 23 22 21 20 20 19 19 23 24
23 23 24 24 25 25 25 25 25 25 25 24 23 23 22 22 22 22 21 21 21 21 21 22 22 23 23 23 23 22 22 21 21 21 20 19 20 19 19 19 19 19 22
22 23 23 23 23 23 23 23 23 22 22 21 21 21 20 20 20 19 19 18 18 19 19 19 19 19 20 19 19 19 18 18 18 17 18 18 18 19 19 18 19 21 21
21 21 22 22 22 21 21 21 20 20 20 19 19 18 18 18 17 17 16 16 16 15 15 15 16 16 16 15 16 16 17 17 17 17 18 18 18 19 19 20 20 22 24
21 21 21 21 20 20 20 19 19 18 17 17 16 16 15 14 14 13 13 13 12 12 13 13 15 15 15 15 16 17 17 18 18 19 19 20 21 21 22 23 24 26 26
21 21 20 20 19 19 18 18 17 17 17 16 15 13 12 12 11 10 9 10 10 11 13 14 15 15 16 17 18 18 19 19 20 20 21 22 23 24 25 26 26 26 25
20 20 20 19 19 18 18 17 17 16 15 14 13 12 11 10 9 9 9 10 11 12 13 14 14 15 17 18 19 19 20 20 21 22 23 23 24 25 25 25 24 24 24
20 19 19 19 19 18 18 17 16 15 14 13 12 11 10 9 9 9 10 11 12 13 14 14 15 16 17 19 20 20 21 21 22 22 23 23 24 24 24 23 23 23 23
20 19 19 19 18 18 17 16 15 14 13 12 11 10 10 10 10 10 11 12 13 14 15 15 16 17 18 19 20 20 21 21 22 23 23 23 23 23 23 23 24 24 24
19 18 18 17 17 17 16 16 15 14 13 12 11 10 9 9 10 10 12 13 14 14 15 16 16 18 19 19 19 20 20 21 22 22 22 22 23 23 24 25 25 25 26
17 17 17 17 16 16 16 16 15 14 13 12 11 10 10 10 11 11 12 13 14 14 15 16 17 18 19 19 19 20 20 21 22 22 22 23 24 26 27 27 27 28 29
17 17 17 16 16 16 16 16 15 15 13 12 12 11 11 12 12 12 13 14 14 15 16 17 18 18 19 19 20 20 21 22 22 23 24 25 27 28 29 28 29 30 32
16 16 17 16 17 17 17 16 15 15 14 13 13 13 13 13 14 14 14 15 15 16 17 17 18 19 19 20 20 21 22 23 23 24 26 27 29 30 30 30 31 32 33
17 17 17 18 18 17 17 17 16 15 15 14 14 14 14 14 14 14 14 15 16 16 17 18 18 19 20 20 21 22 23 24 25 26 28 29 30 31 31 31 32 33 34
17 18 18 19 18 18 18 17 17 16 16 16 15 15 15 15 14 14 15 16 16 17 18 18 19 20 21 22 23 24 25 26 26 27 29 31 32 31 31 31 32 33 34
17 18 18 19 19 19 19 18 17 17 16 16 16 16 15 15 15 15 16 16 17 18 19 19 20 21 22 23 24 25 26 27 27 29 30 31 32 31 31 31 32 32 30
18 19 19 20 20 20 20 20 19 19 18 18 18 17 17 17 17 17 17 18 18 19 20 21 22 23 24 25 26 27 27 28 29 30 31 32 32 31 30 30 30 29 27
19 20 20 21 21 21 20 20 20 20 20 20 19 19 19 19 19 19 20 20 20 21 22 23 24 25 26 27 27 28 29 29 30 31 32 33 32 30 30 30 29 28 26
21 22 22 22 22 22 22 22 22 22 22 22 22 22 21 21 21 21 21 22 23 24 24 25 26 27 28 28 29 29 30 31 31 32 33 32 31 30 30 29 28 27 26
22 23 24 23 24 24 24 24 23 23 24 24 24 24 24 24 24 24 24 25 25 26 26 27 28 28 29 29 29 30 31 31 32 32 33 32 31 31 30 30 29 28 28
23 24 25 25 25 26 26 26 26 26 26 26 26 26 26 26 26 26 27 27 27 28 28 29 29 30 30 30 30 31 31 32 33 33 32 32 32 32 32 31 31 30 30
26 26 26 27 27 28 28 28 29 28 28 28 28 28 28 29 29 29 29 29 29 30 30 30 30 30 31 31 31 32 32 33 33 33 33 33 34 34 33 33 32 32 32
29 29 29 29 29 28 29 29 31 31 31 30 30 30 30 31 31 31 31 31 31 31 31 30 30 31 32 32 33 33 34 34 34 34 34 34 35 35 34 34 34 35 35
30 31 32 31 31 31 31 31 31 31 31 31 31 31 31 31 31 32 32 31 31 31 30 30 31 32 33 33 34 34 35 35 35 35 35 36 36 36 36 36 36 37 37
32 32 33 33 33 34 33 33 33 33 33 32 32 32 32 32 32 32 31 31 30 30 29 30 32 33 34 34 35 35 36 36 36 36 36 37 37 37 38 38 38 38 38
Wind_Direction
247 250 250 253 255 256 257 259 260 261 263 264 265 267 268 268 270 272 275 276 278 282 286 287 289 292 294 296 296 296 297 296 296 299 302 304 304 304 302 294 279 283 281
248 249 251 253 256 257 258 260 261 262 263 265 266 266 267 268 270 272 274 275 278 282 286 288 292 294 296 298 298 298 299 298 298 300 302 303 305 303 302 300 290 287 283
247 249 251 252 254 256 258 260 261 262 263 263 264 264 266 268 271 272 272 274 278 283 288 292 294 296 299 300 300 300 301 302 301 302 303 303 304 303 301 298 294 290 290
249 250 252 254 254 255 257 258 259 260 260 261 262 263 266 267 269 270 271 273 279 285 290 294 298 301 302 303 303 305 306 307 307 307 308 305 303 302 301 298 294 294 290
251 253 252 252 253 253 254 255 256 257 258 259 260 262 264 266 267 268 269 273 280 286 292 297 302 306 308 308 309 310 310 309 308 308 307 305 305 304 302 300 298 296 294
251 251 250 251 251 251 251 252 253 253 254 256 259 260 261 262 264 264 269 272 279 285 292 298 302 306 307 310 311 311 310 308 306 305 305 304 303 301 300 298 297 297 295
250 248 249 249 247 246 247 248 249 250 251 254 253 252 252 255 257 262 265 273 281 289 295 299 302 303 306 307 310 310 310 309 307 306 305 304 302 300 299 298 297 296 293
247 246 246 246 245 244 245 246 247 248 247 244 242 243 246 248 251 256 265 278 286 293 298 301 302 304 306 308 310 309 308 307 307 307 307 306 304 302 300 299 298 296 294
243 244 244 244 242 241 242 244 242 238 235 234 234 235 236 243 251 261 273 281 289 297 300 301 302 305 308 311 311 310 309 308 309 310 309 309 307 306 303 301 298 298 295
241 242 244 242 240 238 237 233 231 228 226 226 226 229 237 248 258 268 277 285 292 296 297 300 303 306 310 311 312 312 311 310 311 311 311 311 311 309 307 303 300 297 295
240 239 239 236 233 231 229 226 222 220 219 220 224 231 241 254 265 274 284 290 293 295 297 300 303 308 311 312 312 313 313 313 313 313 313 313 312 310 308 305 301 298 295
235 234 233 230 229 226 220 217 215 214 214 218 224 236 249 261 271 280 287 292 295 297 299 302 306 308 311 312 312 312 314 315 315 315 314 314 313 311 309 306 302 299 296
231 232 229 226 223 217 212 210 210 213 217 224 233 244 255 265 274 282 287 291 295 299 301 304 307 307 309 311 312 313 313 314 315 315 315 315 314 312 310 307 304 302 299
230 228 224 221 214 211 211 211 212 217 224 232 242 252 262 269 274 280 284 289 294 298 301 304 306 307 308 310 310 312 313 313 314 314 315 315 315 314 311 308 306 305 303
229 223 220 215 212 212 213 216 220 226 232 240 250 258 264 270 274 277 283 290 295 299 301 305 306 307 308 309 310 311 312 312 312 313 314 315 315 314 311 310 309 308 307
226 220 217 214 214 215 218 223 229 234 239 247 255 260 266 270 273 276 283 289 295 299 301 303 305 307 308 309 309 310 311 311 312 312 313 315 315 314 312 313 313 312 311
222 218 217 215 217 221 225 229 232 238 244 249 254 260 263 268 272 277 284 290 295 298 299 302 303 305 307 308 308 308 309 310 311 311 313 315 315 314 314 313 315 315 315
223 221 220 221 224 227 231 234 237 241 247 252 256 260 263 266 272 278 284 289 293 296 299 300 302 305 306 307 307 307 309 310 310 311 312 314 314 313 313 314 316 317 315
228 227 226 227 229 231 235 237 241 245 249 253 258 262 263 266 271 278 282 286 290 293 297 300 302 304 306 306 307 307 307 308 309 310 312 313 312 311 312 313 314 314 312
233 230 230 231 233 236 239 241 245 248 251 254 259 262 265 266 272 277 281 285 288 292 295 297 301 303 305 305 306 306 307 307 308 309 312 312 310 310 309 309 310 309 309
235 234 234 236 238 240 242 245 249 251 253 257 260 263 264 268 271 276 280 284 287 290 294 296 300 302 304 305 305 305 306 307 307 308 310 310 309 308 307 306 306 305 304
239 238 239 241 243 245 247 249 251 254 256 259 262 264 265 268 272 276 279 282 286 290 293 295 298 301 303 303 304 305 306 306 307 308 308 308 308 307 305 304 304 303 301
243 243 243 245 247 248 250 251 253 256 259 261 263 264 266 268 272 276 278 282 286 289 291 293 296 299 301 301 302 303 305 306 307 307 308 308 307 306 304 302 301 300 300
245 245 246 248 249 251 252 254 256 257 259 261 263 265 266 269 272 275 279 282 285 287 289 291 294 297 300 301 302 303 303 305 305 305 306 308 307 305 303 302 300 299 298
248 247 248 250 251 253 255 256 257 258 259 261 263 265 267 270 272 276 278 280 283 285 287 290 293 297 299 300 301 302 303 304 304 304 305 307 306 305 303 302 300 299 298
249 250 252 253 253 254 255 256 258 257 259 261 263 266 268 270 273 276 277 280 282 284 287 290 294 297 299 300 301 302 303 304 304 304 305 306 306 305 303 302 300 299 298